Tracking 19795 objects as of 20-Jul-2019
HD Live streaming from Space Station
objects crossing your sky now

ARIANE 2 DEB

Track ARIANE 2 DEB now!


NORAD ID: 26727
Int'l Code: 1989-006E
Perigee: 541.6 km
Apogee: 35,496.0 km
Inclination: 8.7 °
Period: 631.8 minutes
Semi major axis: 24389 km
RCS: 0.356 m2 (medium)
Launch date: January 27, 1989
Source: France (FR)
Launch site: FRENCH GUIANA (FRGUI)

Note: This is SATELLITE DEBRIS
aabbcc
Your satellite tracking list
Your tracking list is empty




NASA's NSSDC Master Catalog

Two Line Element Set (TLE):
1 26727U 89006E   19178.15348581 -.00000289  00000-0 -58234-3 0  9994
2 26727   8.7257   0.7855 7165798 266.8819  20.5406  2.27924809153620
Source of the keplerian elements: AFSPC